CAPE
5 1 0 0 0 0 4 0 8 1 0 0 0 0 0 0 0 0 0 0 0 0 0 0 0 0 0 0 0 0 0 0 0 0 0 0 0 0 0 0 0 0
29 30 0 3 0 0 0 0 0 2 0 0 0 0 0 0 0 0 0 0 0 0 0 0 0 0 0 0 0 0 0 0 0 0 0 0 0 0 0 0 0 0
266 19 0 12 0 0 0 0 0 1 0 0 0 0 0 0 0 0 0 0 0 0 0 0 0 0 0 0 0 0 0 0 0 0 0 0 0 0 0 0 0 0
84 0 0 1 0 0 0 0 3 0 0 0 0 0 0 0 0 0 0 0 0 0 0 0 0 0 0 0 0 0 0 0 0 0 0 0 0 0 0 0 0 0
69 0 8 0 0 0 0 0 0 0 0 0 0 0 0 0 0 0 0 0 0 0 0 0 0 0 0 0 0 0 0 0 0 0 0 0 0 0 0 0 0 0
96 0 4 0 0 0 0 0 0 0 0 0 0 0 0 0 0 0 0 0 0 0 0 0 0 0 0 0 0 0 0 0 0 0 0 0 0 0 0 0 0 0
313 5 0 0 0 0 0 0 0 0 0 0 0 0 0 0 0 0 0 0 0 0 0 0 0 0 0 0 0 0 0 0 0 0 0 0 0 0 0 0 0 0
585 287 0 1 2 0 2 1 0 0 0 0 0 0 0 0 0 0 0 0 0 0 0 0 0 0 0 0 0 0 0 0 0 0 0 0 0 0 0 0 0 0
653 348 19 10 18 30 47 19 6 1 0 0 0 0 0 0 0 0 0 0 0 0 0 0 0 0 0 0 0 0 0 0 0 0 0 0 0 0 0 0 0 0
652 436 259 83 120 160 135 72 28 37 0 0 0 0 0 0 0 0 0 0 0 0 0 0 0 0 0 0 0 0 0 0 0 0 0 0 0 0 0 0 0 0
467 579 317 161 216 237 218 131 122 67 16 0 1 0 0 0 0 0 0 0 0 0 0 0 0 0 0 0 0 0 0 0 0 0 0 0 0 0 0 0 0 0
414 250 288 171 226 227 229 206 155 67 72 42 139 0 0 0 0 0 0 0 0 0 0 0 0 0 0 0 0 0 0 0 0 0 0 2 0 0 0 0 0 0
350 411 264 225 274 264 210 224 192 122 31 129 370 0 0 0 0 0 0 0 0 0 0 0 0 0 0 0 0 13 34 0 48 0 37 85 3 0 0 0 0 0
233 542 364 230 244 310 311 247 180 187 27 171 275 5 16 8 0 0 0 0 0 0 0 0 0 0 14 44 59 49 175 145 337 292 76 46 13 0 33 44 2 2
463 628 536 441 342 410 426 314 266 225 351 393 482 445 339 104 62 69 14 0 0 0 2 0 0 0 0 0 10 282 318 356 312 334 368 348 324 176 68 193 0 0
604 604 650 594 540 504 446 411 314 450 499 521 719 720 486 370 155 105 60 87 8 0 1 4 6 24 0 0 0 189 426 330 308 320 353 331 193 2 0 25 297 158
594 504 559 604 605 621 601 441 330 625 454 513 571 646 505 434 42 128 271 99 32 20 31 44 26 80 0 0 0 0 347 517 375 311 289 326 242 0 0 0 0 15
448 440 499 517 461 402 346 370 487 717 611 680 727 681 537 473 296 211 187 257 147 82 41 18 12 14 0 0 0 0 193 416 498 498 456 452 420 178 0 0 0 0
304 89 380 365 373 93 263 533 769 857 849 763 890 817 711 610 486 296 256 445 474 305 130 86 54 0 0 0 0 0 144 335 424 482 463 435 413 366 113 0 0 0
222 86 335 299 15 100 22 474 472 788 877 768 881 893 810 702 576 527 433 253 517 613 560 513 486 302 259 241 222 338 312 151 4 0 0 338 370 338 141 0 0 0
0 0 102 0 298 488 471 453 482 771 795 868 912 854 762 636 556 534 522 456 453 645 762 785 721 677 616 549 450 360 0 0 0 0 0 0 0 0 0 0 0 0
1 0 0 0 0 0 0 416 415 582 702 784 756 691 642 659 658 631 606 555 532 538 680 820 927 888 802 672 535 360 0 0 0 145 0 0 0 0 0 0 0 0
0 0 0 0 0 0 0 0 0 349 614 702 684 694 728 704 659 592 553 578 577 524 502 657 822 905 891 827 716 574 532 491 457 426 464 342 6 0 0 0 0 0
0 0 0 0 0 0 0 0 0 0 0 355 525 565 667 630 575 456 435 444 458 431 345 400 650 825 872 848 774 676 587 522 461 381 282 439 298 0 0 0 0 3
0 0 0 0 0 0 0 0 0 0 0 0 0 0 0 358 405 430 423 370 363 370 363 424 580 752 800 758 698 689 665 622 493 405 295 437 347 0 0 0 0 0
0 0 0 0 0 0 0 0 0 0 0 0 0 0 0 0 9 419 427 392 360 309 264 345 464 638 744 705 659 646 637 558 401 400 375 468 365 0 0 0 0 0
Wind_Speed
nan nan nan nan nan nan nan nan nan nan nan nan nan nan nan nan nan nan nan nan nan nan nan nan nan nan nan nan nan nan nan nan nan nan nan nan nan nan nan nan nan nan
nan nan nan nan nan nan nan nan nan nan nan nan nan nan nan nan nan nan nan nan nan nan nan nan nan nan nan nan nan nan nan nan nan nan nan nan nan nan nan nan nan nan
19 nan nan nan nan nan nan nan nan nan nan nan nan nan nan nan nan nan nan nan nan nan nan nan nan nan nan nan nan nan nan nan nan nan nan nan nan nan nan nan nan nan
nan nan nan nan nan nan nan nan nan nan nan nan nan nan nan nan nan nan nan nan nan nan nan nan nan nan nan nan nan nan nan nan nan nan nan nan nan nan nan nan nan nan
nan nan nan nan nan nan nan nan nan nan nan nan nan nan nan nan nan nan nan nan nan nan nan nan nan nan nan nan nan nan nan nan nan nan nan nan nan nan nan nan nan nan
nan nan nan nan nan nan nan nan nan nan nan nan nan nan nan nan nan nan nan nan nan nan nan nan nan nan nan nan nan nan nan nan nan nan nan nan nan nan nan nan nan nan
23 nan nan nan nan nan nan nan nan nan nan nan nan nan nan nan nan nan nan nan nan nan nan nan nan nan nan nan nan nan nan nan nan nan nan nan nan nan nan nan nan nan
20 21 nan nan nan nan nan nan nan nan nan nan nan nan nan nan nan nan nan nan nan nan nan nan nan nan nan nan nan nan nan nan nan nan nan nan nan nan nan nan nan nan
18 19 nan nan nan nan nan nan nan nan nan nan nan nan nan nan nan nan nan nan nan nan nan nan nan nan nan nan nan nan nan nan nan nan nan nan nan nan nan nan nan nan
18 19 23 nan 25 24 24 nan nan nan nan nan nan nan nan nan nan nan nan nan nan nan nan nan nan nan nan nan nan nan nan nan nan nan nan nan nan nan nan nan nan nan
25 28 25 22 20 18 18 17 16 nan nan nan nan nan nan nan nan nan nan nan nan nan nan nan nan nan nan nan nan nan nan nan nan nan nan nan nan nan nan nan nan nan
27 27 26 26 16 14 15 15 16 nan nan nan 22 nan nan nan nan nan nan nan nan nan nan nan nan nan nan nan nan nan nan nan nan nan nan nan nan nan nan nan nan nan
19 21 20 20 16 16 14 17 20 19 nan 19 21 nan nan nan nan nan nan nan nan nan nan nan nan nan nan nan nan nan nan nan nan nan nan nan nan nan nan nan nan nan
18 17 17 14 17 18 16 17 21 24 nan 19 21 nan nan nan nan nan nan nan nan nan nan nan nan nan nan nan nan nan 26 25 27 26 nan nan nan nan nan nan nan nan
13 14 13 14 18 17 16 15 20 22 23 21 20 18 21 24 nan nan nan nan nan nan nan nan nan nan nan nan nan 27 28 32 29 25 27 27 26 27 nan 28 nan nan
14 14 16 15 15 17 17 16 17 19 20 21 20 19 19 20 23 24 nan nan nan nan nan nan nan nan nan nan nan 31 30 31 28 26 27 28 28 nan nan nan 31 32
13 13 15 16 17 18 16 18 15 15 17 19 19 19 18 19 nan 23 23 nan nan nan nan nan nan nan nan nan nan nan 34 32 31 30 31 32 31 nan nan nan nan nan
15 14 14 14 15 16 14 14 11 15 16 17 19 20 20 22 23 24 25 26 26 nan nan nan nan nan nan nan nan nan 37 35 34 35 35 34 33 34 nan nan nan nan
21 nan 15 17 19 nan 14 16 20 21 19 20 21 22 24 25 26 27 28 27 28 28 26 nan nan nan nan nan nan nan 38 38 37 38 37 35 35 35 36 nan nan nan
27 nan 28 30 nan 27 nan 28 28 25 23 24 26 27 27 28 29 29 29 29 29 29 29 30 31 29 34 42 44 43 40 38 nan nan nan 39 38 38 37 nan nan nan
nan nan 30 nan 35 36 36 33 30 31 31 30 30 30 29 29 30 31 32 32 31 31 32 31 32 33 39 44 45 44 nan nan nan nan nan nan nan nan nan nan nan nan
nan nan nan nan nan nan nan 36 36 37 37 35 34 33 33 34 33 35 34 35 36 36 35 34 34 39 41 43 45 46 nan nan nan 43 nan nan nan nan nan nan nan nan
nan nan nan nan nan nan nan nan nan 42 38 39 39 37 36 36 35 35 37 37 37 38 37 36 35 36 40 44 46 47 46 43 43 43 44 44 nan nan nan nan nan nan
nan nan nan nan nan nan nan nan nan nan nan 44 42 40 39 39 38 37 38 40 40 38 38 38 37 38 43 46 48 48 47 46 45 45 44 45 47 nan nan nan nan nan
nan nan nan nan nan nan nan nan nan nan nan nan nan nan nan 41 42 40 37 38 39 39 38 38 40 42 46 47 49 49 47 46 47 48 47 49 51 nan nan nan nan nan
nan nan nan nan nan nan nan nan nan nan nan nan nan nan nan nan nan 42 39 37 37 39 42 46 48 50 50 51 52 51 50 50 50 51 52 54 54 nan nan nan nan nan
Wind_Direction
nan nan nan nan nan nan nan nan nan nan nan nan nan nan nan nan nan nan nan nan nan nan nan nan nan nan nan nan nan nan nan nan nan nan nan nan nan nan nan nan nan nan
nan nan nan nan nan nan nan nan nan nan nan nan nan nan nan nan nan nan nan nan nan nan nan nan nan nan nan nan nan nan nan nan nan nan nan nan nan nan nan nan nan nan
274 nan nan nan nan nan nan nan nan nan nan nan nan nan nan nan nan nan nan nan nan nan nan nan nan nan nan nan nan nan nan nan nan nan nan nan nan nan nan nan nan nan
nan nan nan nan nan nan nan nan nan nan nan nan nan nan nan nan nan nan nan nan nan nan nan nan nan nan nan nan nan nan nan nan nan nan nan nan nan nan nan nan nan nan
nan nan nan nan nan nan nan nan nan nan nan nan nan nan nan nan nan nan nan nan nan nan nan nan nan nan nan nan nan nan nan nan nan nan nan nan nan nan nan nan nan nan
nan nan nan nan nan nan nan nan nan nan nan nan nan nan nan nan nan nan nan nan nan nan nan nan nan nan nan nan nan nan nan nan nan nan nan nan nan nan nan nan nan nan
261 nan nan nan nan nan nan nan nan nan nan nan nan nan nan nan nan nan nan nan nan nan nan nan nan nan nan nan nan nan nan nan nan nan nan nan nan nan nan nan nan nan
261 255 nan nan nan nan nan nan nan nan nan nan nan nan nan nan nan nan nan nan nan nan nan nan nan nan nan nan nan nan nan nan nan nan nan nan nan nan nan nan nan nan
264 259 nan nan nan nan nan nan nan nan nan nan nan nan nan nan nan nan nan nan nan nan nan nan nan nan nan nan nan nan nan nan nan nan nan nan nan nan nan nan nan nan
257 250 249 nan 249 250 253 nan nan nan nan nan nan nan nan nan nan nan nan nan nan nan nan nan nan nan nan nan nan nan nan nan nan nan nan nan nan nan nan nan nan nan
229 228 231 242 252 248 251 246 245 nan nan nan nan nan nan nan nan nan nan nan nan nan nan nan nan nan nan nan nan nan nan nan nan nan nan nan nan nan nan nan nan nan
245 243 228 210 217 242 241 240 239 nan nan nan 251 nan nan nan nan nan nan nan nan nan nan nan nan nan nan nan nan nan nan nan nan nan nan nan nan nan nan nan nan nan
258 261 244 238 226 208 221 243 241 243 nan 250 253 nan nan nan nan nan nan nan nan nan nan nan nan nan nan nan nan nan nan nan nan nan nan nan nan nan nan nan nan nan
252 254 252 236 224 229 229 238 239 233 nan 243 246 nan nan nan nan nan nan nan nan nan nan nan nan nan nan nan nan nan 288 287 285 285 nan nan nan nan nan nan nan nan
260 259 251 232 229 233 245 236 236 234 237 239 247 250 249 248 nan nan nan nan nan nan nan nan nan nan nan nan nan 284 289 291 291 288 286 288 291 294 nan 295 nan nan
239 235 237 236 234 236 237 228 227 235 238 241 249 253 253 254 253 252 nan nan nan nan nan nan nan nan nan nan nan 287 287 291 288 286 287 292 294 nan nan nan 293 292
263 250 250 246 250 251 232 213 216 232 236 241 248 252 254 255 nan 254 256 nan nan nan nan nan nan nan nan nan nan nan 286 287 286 286 288 291 293 nan nan nan nan nan
257 245 243 248 246 244 233 212 218 249 244 246 250 250 252 251 252 258 259 260 263 nan nan nan nan nan nan nan nan nan 288 288 287 288 288 288 290 294 nan nan nan nan
274 nan 262 259 255 nan 269 277 266 261 254 249 251 251 252 254 257 260 261 263 267 269 271 nan nan nan nan nan nan nan 291 289 289 289 287 286 288 291 291 nan nan nan
286 nan 285 288 nan 282 nan 267 263 264 259 256 256 254 255 255 257 261 262 264 265 268 271 272 274 278 282 281 284 287 289 288 nan nan nan 286 291 292 289 nan nan nan
nan nan 265 nan 269 272 271 266 264 265 266 263 262 261 259 257 257 259 261 263 263 264 268 270 273 277 280 285 286 287 nan nan nan nan nan nan nan nan nan nan nan nan
nan nan nan nan nan nan nan 262 264 270 271 269 268 264 261 259 258 260 259 261 262 260 261 265 268 270 276 281 285 286 nan nan nan 284 nan nan nan nan nan nan nan nan
nan nan nan nan nan nan nan nan nan 259 261 264 267 266 262 260 261 263 265 267 267 268 268 268 270 275 280 283 285 287 284 282 282 283 284 285 nan nan nan nan nan nan
nan nan nan nan nan nan nan nan nan nan nan 265 265 265 266 269 271 269 268 269 269 269 271 271 275 282 290 291 292 292 289 286 286 286 284 285 282 nan nan nan nan nan
nan nan nan nan nan nan nan nan nan nan nan nan nan nan nan 271 274 275 271 269 270 273 277 276 276 282 291 294 293 293 290 286 287 287 286 283 285 nan nan nan nan nan
nan nan nan nan nan nan nan nan nan nan nan nan nan nan nan nan nan 277 275 272 272 276 279 283 285 286 292 296 295 295 294 288 286 286 286 286 287 nan nan nan nan nan